Terug naar catalogus

SL-12 R/B

AUX MOTOR

ActiefHEO
NORAD 19856·ROCKET BODY·🇷🇺 Russia

Gelanceerd Jan 10, 1989 vanaf Baikonur Cosmodrome

Loading…

Volgende Passages (komende 24 uur)

TLE

VersSource: Space-Track

Epoch: Sep 11, 2026, 12:34 UTC

1 19856U 89001H   26254.52426909 -.00000113  00000-0 -33567-4 0  9998
2 19856  65.1276 349.3197 5678871  19.8738 355.4008  4.25462490584202

Volg SL-12 R/B in realtime met AllMySat

Download on the App Store